Regional Weather Roundup
Issued by NWS Little Rock, AR

Home | Current Version | Previous Version | Graphics & Text | Print | Product List | Glossary On
Versions: 1 2 3 4 5 6 7 8 9 10 11 12 13 14 15 16 17 18 19 20 21 22 23 24 25 26 27 28 29 30 31 32
000
ASUS44 KLZK 260005
RWRLZK

WEATHER ROUNDUP FOR ARKANSAS
NATIONAL WEATHER SERVICE LITTLE ROCK AR
700 PM CDT TUE JUL 25 2017

NOTE: "FAIR" INDICATES FEW OR NO CLOUDS BELOW 12,000 FEET WITH NO
SIGNIFICANT WEATHER AND/OR OBSTRUCTIONS TO VISIBILITY.

ARZ001-003-010-029-260100-
NORTHWEST ARKANSAS

CITY           SKY/WX    TMP DP  RH WIND       PRES   REMARKS
FAYETTEVILLE   SUNNY     89  73  59 S7        30.07S HX  97
6HR MIN TEMP:  87; 6HR MAX TEMP:  91;

FORT SMITH     MOSUNNY   94  73  50 S5        30.01R HX 103
6HR MIN TEMP:  92; 6HR MAX TEMP:  97;

HARRISON       SUNNY     87  71  58 S6        30.08R HX  93
6HR MIN TEMP:  87; 6HR MAX TEMP:  94;

BENTONVILLE    SUNNY     91  70  49 SW8       30.08S HX  97
6HR MIN TEMP:  90; 6HR MAX TEMP:  93;

ROGERS         CLOUDY    91  71  51 SE7       30.07S HX  97
6HR MIN TEMP:  89; 6HR MAX TEMP:  95;

SILOAM SPGS    SUNNY     91  68  46 SW12      30.06S HX  95
6HR MIN TEMP:  90; 6HR MAX TEMP:  93;

HIGHFILL       SUNNY     91  70  49 SW8       30.07S HX  96
6HR MIN TEMP:  90; 6HR MAX TEMP:  96;

SPRINGDALE     SUNNY     91  68  46 S12       30.08S HX  95
$$

ARZ004-005-016-260100-
NORTH CENTRAL ARKANSAS

CITY           SKY/WX    TMP DP  RH WIND       PRES   REMARKS
BATESVILLE     MOSUNNY   91  73  55 SW9       30.03S HX 100
6HR MIN TEMP:  88; 6HR MAX TEMP:  95;

FLIPPIN        SUNNY     93  68  43 S3        30.02S HX  97
6HR MIN TEMP:  91; 6HR MAX TEMP:  97;

MTN HOME       SUNNY     91  71  51 S5        30.04S HX  97
6HR MIN TEMP:  91; 6HR MAX TEMP:  95;

$$

ARZ040-041-260100-
WEST CENTRAL ARKANSAS

CITY           SKY/WX    TMP DP  RH WIND       PRES   REMARKS
MENA           SUNNY     91  73  55 CALM      30.08S HX 100
MOUNT IDA      SUNNY     91  69  48 VRB5      30.05R HX  96
6HR MIN TEMP:  91; 6HR MAX TEMP:  94;

$$

ARZ009-017-025-026-028-260100-
NORTHEAST ARKANSAS

CITY           SKY/WX    TMP DP  RH WIND       PRES   REMARKS
JONESBORO      CLOUDY    88  79  74 S7        30.03R HX 103
6HR MIN TEMP:  78; 6HR MAX TEMP:  97;

WALNUT RIDGE   SUNNY     88  75  66 SE8       30.02S HX  97
BLYTHEVILLE    CLOUDY    88  78  72 W5        30.03S HX 101
6HR MIN TEMP:  87; 6HR MAX TEMP:  94;

$$

ARZ022-023-033-042-044-260100-
CENTRAL ARKANSAS

CITY           SKY/WX    TMP DP  RH WIND       PRES   REMARKS
LITTLE ROCK    MOSUNNY   91  76  61 S7        30.03S HX 103
6HR MIN TEMP:  91; 6HR MAX TEMP:  94;

N LITTLE ROCK    N/A     91  76  62 SE6       30.02S HX 102
6HR MIN TEMP:  88; 6HR MAX TEMP:  96;

JACKSONVILLE   MOSUNNY   94  76  55 SE6       30.03S HX 107
6HR MIN TEMP:  93; 6HR MAX TEMP:  97;

CONWAY           N/A     95  75  52 SE8       30.00S HX 107
SEARCY         PTSUNNY   87  81  82 S5        30.04F HX 104
6HR MIN TEMP:  87; 6HR MAX TEMP:  96;

HOT SPRINGS    SUNNY     92  74  55 S7        30.05R HX 101
6HR MIN TEMP:  92; 6HR MAX TEMP:  96;

RUSSELLVILLE   SUNNY     93  75  55 SE3       30.01F HX 104
6HR MIN TEMP:  91; 6HR MAX TEMP:  96;

CLINTON        FAIR      90  75  62 E3        30.04S HX 100
$$

ARZ036-260100-
EAST ARKANSAS

CITY           SKY/WX    TMP DP  RH WIND       PRES   REMARKS
WEST MEMPHIS   PTSUNNY   89  79  72 CALM      30.03R HX 104
6HR MIN TEMP:  89; 6HR MAX TEMP:  94;

$$

ARZ050-053-066-070-073-260100-
SOUTHWEST ARKANSAS

CITY           SKY/WX    TMP DP  RH WIND       PRES   REMARKS
ARKADELPHIA    FAIR      92  74  55 SW5       30.04S HX 101
6HR MIN TEMP:  92; 6HR MAX TEMP:  95;

CAMDEN         SUNNY     93  72  49 S6        30.04S HX 100
TEXARKANA      SUNNY     91  70  49 S8        30.05R HX  96
6HR MIN TEMP:  89; 6HR MAX TEMP:  93;

EL DORADO      SUNNY     91  70  49 SW5       30.06S HX  96
6HR MIN TEMP:  91; 6HR MAX TEMP:  95;

DE QUEEN       SUNNY     91  74  57 S3        30.02S HX 100
6HR MIN TEMP:  89; 6HR MAX TEMP:  94;

$$

ARZ056-057-069-260100-
SOUTHEAST ARKANSAS

CITY           SKY/WX    TMP DP  RH WIND       PRES   REMARKS
PINE BLUFF     SUNNY     92  75  57 SW6       30.04S HX 103
6HR MIN TEMP:  90; 6HR MAX TEMP:  94;

STUTTGART      SUNNY     93  66  40 S7        30.05S HX  96
6HR MIN TEMP:  93; 6HR MAX TEMP:  97;

MONTICELLO     SUNNY     91  75  59 SW5       30.06R HX 101
6HR MIN TEMP:  91; 6HR MAX TEMP:  95;


$$






USA.gov is the U.S. government's official web portal to all federal, state and local government web resources and services.